Voltar ao catálogo

CZ-6A DEB

AtivoPO
NORAD 60866·DEBRIS·🇨🇳 China

Lançado Aug 6, 2024 de Taiyuan Satellite Launch Center

Loading…

Próximas Passagens (próximas 24 horas)

TLE

AtualizadoSource: Space-Track

Época: Sep 14, 2026, 06:22 UTC

1 60866U 24140JV  26257.26579208  .00002729  00000-0  54612-3 0  9999
2 60866  88.9376 253.7088 0107682 325.8333  33.5979 14.57935133110529

Acompanhe CZ-6A DEB em tempo real com AllMySat

Download on the App Store